This is the latest recevied weather packets stored in our database for station/object GOLDWX. If no packets are shown the sender has not sent any weather packets the latest 10 day(s).
| Time | Temp. | Humidity | Pressure | Rain* | Wind** | Luminosity | Snow |
|---|---|---|---|---|---|---|---|
| 1777835785 | 20.56° C | 22% | 1011.5 hPa | 0 mm | - | - | - |
| 1777835184 | 20.56° C | 21% | 1011.5 hPa | 0 mm | - | - | - |
| 1777834883 | 20.56° C | 21% | 1011.6 hPa | 0 mm | - | - | - |
| 1777834281 | 20.56° C | 20% | 1011.8 hPa | 0 mm | - | - | - |
| 1777833981 | 20.56° C | 20% | 1011.9 hPa | 0 mm | - | - | - |
| 1777833379 | 19.44° C | 20% | 1012.1 hPa | 0 mm | - | - | - |
| 1777833078 | 18.89° C | 20% | 1012.1 hPa | 0 mm | - | - | - |
| 1777832476 | 18.89° C | 20% | 1012.3 hPa | 0 mm | - | - | - |
| 1777832175 | 18.89° C | 20% | 1012.3 hPa | 0 mm | - | - | - |
| 1777831574 | 20° C | 19% | 1012.3 hPa | 0 mm | - | - | - |
| 1777831274 | 20° C | 19% | 1012.4 hPa | 0 mm | - | - | - |
| 1777830671 | 19.44° C | 20% | 1012.4 hPa | 0 mm | - | - | - |
| 1777830371 | 19.44° C | 20% | 1012.4 hPa | 0 mm | - | - | - |
| 1777829769 | 19.44° C | 20% | 1012.3 hPa | 0 mm | - | - | - |
| 1777829468 | 20° C | 20% | 1012.5 hPa | 0 mm | - | - | - |
| 1777828866 | 19.44° C | 20% | 1012.4 hPa | 0 mm | - | - | - |
| 1777828566 | 19.44° C | 20% | 1012.4 hPa | 0 mm | - | - | - |
| 1777827964 | 20.56° C | 19% | 1012.4 hPa | 0 mm | - | - | - |
| 1777827663 | 21.11° C | 19% | 1012.4 hPa | 0 mm | - | - | - |
| 1777827063 | 21.11° C | 20% | 1012.5 hPa | 0 mm | - | - | - |
| 1777826761 | 21.11° C | 20% | 1012.6 hPa | 0 mm | - | - | - |
| 1777826159 | 21.67° C | 20% | 1012.6 hPa | 0 mm | - | - | - |
| 1777825858 | 21.67° C | 21% | 1012.7 hPa | 0 mm | - | - | - |
| 1777825257 | 21.11° C | 22% | 1012.8 hPa | 0 mm | - | - | - |
| 1777824956 | 20.56° C | 22% | 1012.9 hPa | 0 mm | - | - | - |
* Rain since midnight (hover to see other rain measurements)
** Current wind speed in m/s (hover to see current wind gust speed)